TimeEDT,TemperatureF,Dew PointF,Humidity,Sea Level PressureIn,VisibilityMPH,Wind Direction,Wind SpeedMPH,Gust SpeedMPH,PrecipitationIn,Events,Conditions,WindDirDegrees,DateUTC
12:14 AM,59.5,59.0,98,30.02,5.0,Calm,Calm,-,N/A,,Light Drizzle,0,2012-10-04 04:14:00
12:34 AM,59.4,58.8,98,30.01,3.0,Calm,Calm,-,N/A,Rain,Rain,0,2012-10-04 04:34:00
12:54 AM,59.2,58.6,98,30.01,4.0,Calm,Calm,-,N/A,Rain,Light Rain,0,2012-10-04 04:54:00
1:14 AM,59.2,58.6,98,30.00,5.0,Calm,Calm,-,N/A,Rain,Rain,0,2012-10-04 05:14:00
1:34 AM,59.2,58.6,98,30.00,5.0,Calm,Calm,-,N/A,Rain,Light Rain,0,2012-10-04 05:34:00
1:54 AM,59.4,58.6,97,30.00,7.0,SSW,3.5,-,N/A,Rain,Light Rain,200,2012-10-04 05:54:00
2:14 AM,59.2,58.5,97,30.00,7.0,SSW,4.6,-,N/A,,Drizzle,200,2012-10-04 06:14:00
2:34 AM,59.2,58.3,97,30.00,7.0,SSW,4.6,-,N/A,,Drizzle,210,2012-10-04 06:34:00
2:54 AM,59.0,58.1,97,30.00,7.0,SW,5.8,-,N/A,,Drizzle,220,2012-10-04 06:54:00
3:14 AM,59.0,58.1,97,29.99,7.0,SSW,5.8,-,N/A,Rain,Rain,200,2012-10-04 07:14:00
3:34 AM,59.0,58.1,97,29.98,7.0,SSW,5.8,-,N/A,,Light Drizzle,210,2012-10-04 07:34:00
3:54 AM,58.8,57.9,97,29.98,7.0,SSW,5.8,-,N/A,,Light Drizzle,200,2012-10-04 07:54:00
4:14 AM,58.6,57.7,97,29.98,7.0,SSW,5.8,-,N/A,,Light Drizzle,210,2012-10-04 08:14:00
4:34 AM,58.6,57.7,97,29.98,7.0,SSW,4.6,-,N/A,,Drizzle,210,2012-10-04 08:34:00
4:54 AM,58.6,57.6,96,29.97,7.0,SW,5.8,-,N/A,,Drizzle,220,2012-10-04 08:54:00
5:14 AM,59.0,57.7,96,29.97,7.0,SW,4.6,-,N/A,Rain,Light Rain,220,2012-10-04 09:14:00
5:34 AM,58.8,57.9,97,29.97,7.0,SSW,4.6,-,N/A,Rain,Rain,210,2012-10-04 09:34:00
5:54 AM,59.0,58.1,97,29.97,7.0,SSW,6.9,-,N/A,Rain,Rain,210,2012-10-04 09:54:00
6:14 AM,59.0,58.1,97,29.97,7.0,SW,5.8,-,N/A,Rain,Light Rain,220,2012-10-04 10:14:00
6:35 AM,59.0,58.1,97,29.97,7.0,SW,5.8,-,N/A,Rain,Light Rain,220,2012-10-04 10:35:00
6:54 AM,59.0,58.1,97,29.97,5.0,SW,5.8,-,N/A,,Overcast,230,2012-10-04 10:54:00
7:14 AM,59.0,58.1,97,29.97,3.0,SW,5.8,-,N/A,Rain,Rain,220,2012-10-04 11:14:00
7:34 AM,59.0,58.3,97,29.97,3.0,NW,6.9,-,N/A,Rain,Rain,320,2012-10-04 11:34:00
7:54 AM,59.0,57.7,96,29.97,3.0,NNW,5.8,-,N/A,Rain,Rain,330,2012-10-04 11:54:00
8:14 AM,59.4,57.9,95,29.97,7.0,NW,4.6,-,N/A,,Light Drizzle,320,2012-10-04 12:14:00
8:34 AM,59.9,58.3,94,29.97,10.0,NNW,4.6,-,N/A,,Overcast,330,2012-10-04 12:34:00
8:54 AM,60.4,59.0,95,29.97,10.0,NW,4.6,-,N/A,,Overcast,310,2012-10-04 12:54:00
9:14 AM,60.8,59.4,95,29.97,10.0,NW,3.5,-,N/A,,Overcast,320,2012-10-04 13:14:00
9:34 AM,60.8,59.5,96,29.97,10.0,WNW,3.5,-,N/A,,Overcast,300,2012-10-04 13:34:00
9:54 AM,61.0,59.4,94,29.97,7.0,West,3.5,-,N/A,,Overcast,270,2012-10-04 13:54:00
10:14 AM,61.2,59.7,95,29.98,5.0,Calm,Calm,-,N/A,,Overcast,0,2012-10-04 14:14:00
10:34 AM,61.5,60.1,95,29.98,7.0,Calm,Calm,-,N/A,,Overcast,0,2012-10-04 14:34:00
10:54 AM,62.2,60.4,94,29.98,10.0,Calm,Calm,-,N/A,,Overcast,0,2012-10-04 14:54:00
11:14 AM,64.4,61.0,89,29.98,10.0,West,6.9,-,N/A,,Overcast,260,2012-10-04 15:14:00
11:35 AM,65.1,59.4,82,29.97,10.0,SSW,6.9,-,N/A,,Overcast,210,2012-10-04 15:35:00
11:54 AM,64.6,58.1,79,29.97,10.0,SW,6.9,-,N/A,,Mostly Cloudy,220,2012-10-04 15:54:00
12:14 PM,64.9,57.6,77,29.97,10.0,SW,5.8,-,N/A,,Scattered Clouds,230,2012-10-04 16:14:00
12:35 PM,65.5,55.9,71,29.97,10.0,SSW,8.1,-,N/A,,Scattered Clouds,210,2012-10-04 16:35:00
12:54 PM,66.2,56.3,70,29.96,10.0,SSW,9.2,-,N/A,,Clear,200,2012-10-04 16:54:00
1:14 PM,66.7,56.5,70,29.95,10.0,South,9.2,-,N/A,,Clear,190,2012-10-04 17:14:00
1:34 PM,68.0,57.0,68,29.94,10.0,SSE,10.4,-,N/A,,Clear,160,2012-10-04 17:34:00
1:54 PM,68.7,56.8,66,29.94,10.0,SSW,9.2,-,N/A,,Clear,200,2012-10-04 17:54:00
2:34 PM,70.3,55.4,59,29.92,10.0,South,11.5,17.3,N/A,,Clear,190,2012-10-04 18:34:00
2:54 PM,70.3,55.9,60,29.92,10.0,South,13.8,19.6,N/A,,Clear,180,2012-10-04 18:54:00
3:14 PM,70.9,56.1,59,29.91,10.0,South,12.7,24.2,N/A,,Clear,190,2012-10-04 19:14:00
3:34 PM,70.9,55.6,58,29.89,10.0,South,10.4,-,N/A,,Clear,190,2012-10-04 19:34:00
3:54 PM,72.0,54.5,54,29.88,10.0,South,13.8,21.9,N/A,,Clear,190,2012-10-04 19:54:00
4:14 PM,71.6,55.2,56,29.87,10.0,South,11.5,17.3,N/A,,Clear,170,2012-10-04 20:14:00
4:34 PM,71.6,55.0,56,29.88,10.0,South,11.5,16.1,N/A,,Clear,190,2012-10-04 20:34:00
4:54 PM,71.2,55.4,57,29.89,10.0,SSW,13.8,18.4,N/A,,Scattered Clouds,200,2012-10-04 20:54:00
5:14 PM,71.6,55.4,57,29.89,10.0,SSW,10.4,17.3,N/A,,Scattered Clouds,200,2012-10-04 21:14:00
5:34 PM,70.9,55.0,57,29.89,10.0,SSW,10.4,18.4,N/A,,Mostly Cloudy,200,2012-10-04 21:34:00
5:54 PM,70.7,54.7,57,29.89,10.0,South,6.9,18.4,N/A,,Mostly Cloudy,190,2012-10-04 21:54:00
6:14 PM,70.2,53.4,55,29.89,10.0,SSW,15.0,19.6,N/A,,Scattered Clouds,210,2012-10-04 22:14:00
6:34 PM,69.8,53.6,56,29.88,10.0,SSW,10.4,17.3,N/A,,Mostly Cloudy,200,2012-10-04 22:34:00
6:54 PM,68.4,54.5,61,29.88,10.0,SSW,9.2,21.9,N/A,,Overcast,210,2012-10-04 22:54:00
7:14 PM,68.0,54.7,62,29.89,10.0,SW,11.5,19.6,N/A,,Overcast,220,2012-10-04 23:14:00
7:34 PM,67.3,54.9,64,29.87,10.0,SSW,8.1,20.7,N/A,,Mostly Cloudy,200,2012-10-04 23:34:00
7:55 PM,66.9,54.9,65,29.87,10.0,SSW,9.2,16.1,N/A,,Mostly Cloudy,200,2012-10-04 23:55:00
8:14 PM,66.6,55.0,66,29.87,10.0,SW,15.0,19.6,N/A,,Overcast,220,2012-10-05 00:14:00
8:34 PM,65.8,55.4,69,29.88,10.0,SW,12.7,19.6,N/A,,Overcast,220,2012-10-05 00:34:00
8:54 PM,65.3,54.7,68,29.88,10.0,SW,15.0,20.7,N/A,,Overcast,230,2012-10-05 00:54:00
10:14 PM,61.9,47.1,58,29.89,10.0,WSW,19.6,26.5,N/A,,Scattered Clouds,250,2012-10-05 02:14:00
10:34 PM,61.7,45.9,56,29.89,10.0,WSW,20.7,32.2,N/A,,Clear,250,2012-10-05 02:34:00
10:54 PM,61.2,45.0,55,29.90,10.0,West,18.4,27.6,N/A,,Clear,260,2012-10-05 02:54:00
11:14 PM,60.1,44.1,55,29.92,10.0,WSW,15.0,31.1,N/A,,Clear,250,2012-10-05 03:14:00
11:34 PM,59.4,43.5,56,29.92,10.0,WSW,15.0,27.6,N/A,,Clear,250,2012-10-05 03:34:00
11:54 PM,58.1,44.1,60,29.92,10.0,West,20.7,28.8,N/A,,Clear,260,2012-10-05 03:54:00